Starlink 11565

operational
NORAD ID: 62912 Int'l Des: 2025-027 Owner: SPXS Country: US Constellation: starlink
LEOCIRCULAR

关于 Starlink 11565

正在加载描述...

实时位置

正在加载3D地球...

即将过境

高度历史

Altitude vs Time

uPlot chart will show altitude changes over time

两行轨道根数

1 62912U 25027F 25303.64252640 .00329864 00000-0 24663-2 0 9993
2 62912 43.0004 51.1372 0003467 259.2491 100.7986 15.70907858 42708
Epoch: Oct 30, 2025 • Age: 15 hours

当前状态

高度 361.2 km
速度 7.69 km/s
星下点 -29.58°S, 133.25°E
发射日期 Feb 8, 2025
运行时间 0.7 years
类型 internet

技术详情

分类 Payload
质量 960.00 kg
干质量 910.00 kg
总质量 960.00 kg
长度 0.30 m
直径 4.10 m
跨度 29.00 m
形状 Box + pan
制造商 SPXS
平台类型 Starlink V2MD
阶段状态 In Orbit
所有者/国家 SPXS/US

大型星座

Loading constellations...